When you browse on this site, cookies collect data to enhance your experience and personalize the content and advertising you see.
Visit our Privacy Policy to learn more. By continuing to use the site, you agree to this use of cookies and data.

Meteo pe oră la Zarytovo

Astăzi, 14 August, Vineri

Timp Temperatura Precipitaţii Vânt Presiune Umiditate
00:00 +12°C° 0.4 mm 5 m/s 742 mmHg 95%
01:00 +10°C° 0.1 mm 5 m/s 742 mmHg 95%
02:00 +11°C° 0.1 mm 4 m/s 742 mmHg 94%
03:00 +11°C° 0 mm 4 m/s 742 mmHg 96%
04:00 +10°C° 0 mm 4 m/s 742 mmHg 95%
05:00 +10°C° 0 mm 4 m/s 742 mmHg 94%
06:00 +8°C° 0 mm 4 m/s 742 mmHg 93%
07:00 +9°C° 0 mm 5 m/s 742 mmHg 87%
08:00 +12°C° 0 mm 5 m/s 742 mmHg 80%
09:00 +13°C° 0 mm 6 m/s 743 mmHg 72%
10:00 +14°C° 0 mm 6 m/s 743 mmHg 67%
11:00 +15°C° 0 mm 6 m/s 743 mmHg 62%
12:00 +15°C° 0 mm 7 m/s 743 mmHg 57%
13:00 +16°C° 0 mm 6 m/s 743 mmHg 56%
14:00 +16°C° 0 mm 6 m/s 743 mmHg 56%
15:00 +16°C° 0 mm 6 m/s 743 mmHg 56%
16:00 +15°C° 0 mm 5 m/s 743 mmHg 60%
17:00 +15°C° 0 mm 4 m/s 744 mmHg 63%
18:00 +14°C° 0 mm 3 m/s 744 mmHg 66%
19:00 +13°C° 0 mm 3 m/s 744 mmHg 69%
20:00 +12°C° 0 mm 3 m/s 744 mmHg 72%
21:00 +12°C° 0 mm 2 m/s 744 mmHg 75%
22:00 +10°C° 0 mm 2 m/s 744 mmHg 78%
23:00 +9°C° 0 mm 2 m/s 744 mmHg 80%

Mâine, 15 August, Sâmbătă

Timp Temperatura Precipitaţii Vânt Presiune Umiditate
00:00 +9°C° 0 mm 3 m/s 744 mmHg 83%
01:00 +9°C° 0 mm 3 m/s 744 mmHg 86%
02:00 +8°C° 0 mm 3 m/s 744 mmHg 88%
03:00 +8°C° 0 mm 3 m/s 745 mmHg 91%
04:00 +8°C° 0 mm 3 m/s 745 mmHg 91%
05:00 +8°C° 0 mm 3 m/s 745 mmHg 91%
06:00 +8°C° 0 mm 3 m/s 745 mmHg 92%
07:00 +10°C° 0 mm 3 m/s 745 mmHg 85%
08:00 +12°C° 0 mm 3 m/s 745 mmHg 78%
09:00 +14°C° 0 mm 3 m/s 745 mmHg 71%
10:00 +16°C° 0 mm 3 m/s 745 mmHg 67%
11:00 +17°C° 0 mm 4 m/s 745 mmHg 62%
12:00 +19°C° 0 mm 4 m/s 745 mmHg 57%
13:00 +18°C° 0.2 mm 4 m/s 745 mmHg 59%
14:00 +18°C° 0.2 mm 4 m/s 745 mmHg 62%
15:00 +18°C° 0.2 mm 4 m/s 745 mmHg 64%
16:00 +18°C° 0.2 mm 3 m/s 744 mmHg 67%
17:00 +17°C° 0.2 mm 3 m/s 744 mmHg 70%
18:00 +17°C° 0.2 mm 2 m/s 744 mmHg 73%
19:00 +16°C° 0.1 mm 2 m/s 744 mmHg 77%
20:00 +15°C° 0.1 mm 2 m/s 744 mmHg 80%
21:00 +13°C° 0.1 mm 2 m/s 744 mmHg 84%
22:00 +13°C° 0 mm 2 m/s 744 mmHg 87%
23:00 +12°C° 0 mm 2 m/s 744 mmHg 89%

Poimâine, 16 August, Duminică

Timp Temperatura Precipitaţii Vânt Presiune Umiditate
00:00 +12°C° 0 mm 2 m/s 744 mmHg 91%
01:00 +10°C° 0 mm 2 m/s 744 mmHg 91%
02:00 +10°C° 0 mm 2 m/s 744 mmHg 91%
03:00 +10°C° 0 mm 2 m/s 743 mmHg 92%
04:00 +11°C° 0 mm 1 m/s 743 mmHg 92%
05:00 +11°C° 0 mm 1 m/s 743 mmHg 92%
06:00 +11°C° 0 mm 1 m/s 743 mmHg 92%
07:00 +12°C° 0 mm 1 m/s 743 mmHg 86%
08:00 +14°C° 0 mm 2 m/s 743 mmHg 81%
09:00 +16°C° 0 mm 2 m/s 743 mmHg 75%
10:00 +17°C° 0 mm 2 m/s 743 mmHg 70%
11:00 +18°C° 0 mm 2 m/s 743 mmHg 65%
12:00 +19°C° 0 mm 2 m/s 743 mmHg 60%
13:00 +20°C° 0 mm 2 m/s 743 mmHg 59%
14:00 +20°C° 0 mm 2 m/s 743 mmHg 58%
15:00 +21°C° 0 mm 2 m/s 743 mmHg 57%
16:00 +21°C° 0 mm 2 m/s 742 mmHg 62%
17:00 +21°C° 0 mm 2 m/s 742 mmHg 66%
18:00 +20°C° 0 mm 2 m/s 742 mmHg 70%
19:00 +19°C° 0 mm 2 m/s 742 mmHg 74%
20:00 +17°C° 0 mm 2 m/s 742 mmHg 78%
21:00 +16°C° 0 mm 2 m/s 742 mmHg 83%
22:00 +16°C° 0 mm 3 m/s 742 mmHg 84%
23:00 +16°C° 0 mm 3 m/s 742 mmHg 85%

17 August, Luni

Timp Temperatura Precipitaţii Vânt Presiune Umiditate
00:00 +16°C° 0 mm 3 m/s 741 mmHg 86%
01:00 +15°C° 0 mm 4 m/s 741 mmHg 87%
02:00 +15°C° 0 mm 4 m/s 741 mmHg 87%
03:00 +15°C° 0 mm 4 m/s 741 mmHg 88%
04:00 +15°C° 0 mm 4 m/s 741 mmHg 89%
05:00 +15°C° 0 mm 4 m/s 741 mmHg 90%
06:00 +14°C° 0 mm 4 m/s 741 mmHg 91%
07:00 +15°C° 0.2 mm 4 m/s 741 mmHg 89%
08:00 +17°C° 0.2 mm 4 m/s 741 mmHg 87%
09:00 +18°C° 0.2 mm 4 m/s 741 mmHg 85%
10:00 +20°C° 0.2 mm 5 m/s 741 mmHg 80%
11:00 +21°C° 0.2 mm 5 m/s 741 mmHg 75%
12:00 +23°C° 0.2 mm 5 m/s 741 mmHg 70%
13:00 +23°C° 0.5 mm 5 m/s 741 mmHg 69%
14:00 +23°C° 0.5 mm 5 m/s 740 mmHg 67%
15:00 +25°C° 0.5 mm 5 m/s 740 mmHg 66%
16:00 +23°C° 0.6 mm 4 m/s 740 mmHg 70%
17:00 +22°C° 0.6 mm 4 m/s 740 mmHg 75%
18:00 +21°C° 0.6 mm 3 m/s 740 mmHg 79%
19:00 +20°C° 0 mm 3 m/s 741 mmHg 83%
20:00 +19°C° 0 mm 3 m/s 741 mmHg 87%
21:00 +17°C° 0 mm 2 m/s 741 mmHg 90%
22:00 +17°C° 0 mm 2 m/s 741 mmHg 89%
23:00 +16°C° 0 mm 2 m/s 741 mmHg 88%

18 August, Marţi

Timp Temperatura Precipitaţii Vânt Presiune Umiditate
00:00 +15°C° 0 mm 2 m/s 741 mmHg 87%
01:00 +15°C° 0 mm 1 m/s 741 mmHg 86%
02:00 +14°C° 0 mm 1 m/s 742 mmHg 84%
03:00 +14°C° 0 mm 1 m/s 742 mmHg 82%
04:00 +14°C° 0 mm 1 m/s 741 mmHg 82%
05:00 +14°C° 0 mm 1 m/s 741 mmHg 82%
06:00 +14°C° 0 mm 1 m/s 741 mmHg 81%
07:00 +15°C° 0 mm 1 m/s 741 mmHg 78%
08:00 +18°C° 0 mm 1 m/s 741 mmHg 75%
09:00 +19°C° 0 mm 1 m/s 742 mmHg 71%
10:00 +21°C° 0 mm 1 m/s 742 mmHg 69%
11:00 +22°C° 0 mm 1 m/s 742 mmHg 66%
12:00 +23°C° 0 mm 1 m/s 742 mmHg 63%
13:00 +24°C° 0 mm 1 m/s 741 mmHg 59%
14:00 +24°C° 0 mm 1 m/s 741 mmHg 56%
15:00 +25°C° 0 mm 1 m/s 741 mmHg 53%
16:00 +24°C° 0 mm 1 m/s 741 mmHg 56%
17:00 +24°C° 0 mm 1 m/s 741 mmHg 60%
18:00 +24°C° 0 mm 1 m/s 741 mmHg 64%
19:00 +22°C° 0 mm 1 m/s 741 mmHg 67%
20:00 +20°C° 0 mm 1 m/s 741 mmHg 70%
21:00 +19°C° 0 mm 1 m/s 741 mmHg 74%
22:00 +18°C° 0 mm 1 m/s 741 mmHg 76%
23:00 +18°C° 0 mm 1 m/s 741 mmHg 78%

19 August, Miercuri

Timp Temperatura Precipitaţii Vânt Presiune Umiditate
00:00 +16°C° 0 mm 1 m/s 741 mmHg 80%
01:00 +16°C° 0 mm 1 m/s 741 mmHg 81%
02:00 +16°C° 0 mm 1 m/s 741 mmHg 83%
03:00 +16°C° 0 mm 1 m/s 740 mmHg 84%
04:00 +16°C° 0 mm 1 m/s 740 mmHg 84%
05:00 +16°C° 0 mm 2 m/s 740 mmHg 84%
06:00 +16°C° 0 mm 2 m/s 740 mmHg 83%
07:00 +18°C° 0 mm 2 m/s 740 mmHg 79%
08:00 +19°C° 0 mm 2 m/s 740 mmHg 75%
09:00 +21°C° 0 mm 2 m/s 740 mmHg 70%
10:00 +23°C° 0 mm 2 m/s 740 mmHg 66%
11:00 +24°C° 0 mm 2 m/s 740 mmHg 61%
12:00 +25°C° 0 mm 2 m/s 740 mmHg 57%
13:00 +26°C° 0 mm 2 m/s 739 mmHg 56%
14:00 +26°C° 0 mm 2 m/s 739 mmHg 55%
15:00 +26°C° 0 mm 2 m/s 739 mmHg 54%
16:00 +26°C° 0.1 mm 2 m/s 738 mmHg 59%
17:00 +25°C° 0.1 mm 2 m/s 738 mmHg 65%
18:00 +24°C° 0.1 mm 1 m/s 738 mmHg 70%
19:00 +23°C° 0.1 mm 1 m/s 738 mmHg 73%
20:00 +22°C° 0.1 mm 1 m/s 738 mmHg 77%
21:00 +20°C° 0.1 mm 1 m/s 738 mmHg 80%
22:00 +20°C° 0.1 mm 1 m/s 738 mmHg 82%
23:00 +19°C° 0.1 mm 1 m/s 738 mmHg 84%
Arată mai mult